Terminal Aerodrome Forecast
Issued by NWS Milwaukee/Sullivan, WI

Home | Current Version | Previous Version | Text Only | Print | Product List | Glossary On
Versions: 1 2 3 4 5 6 7 8 9 10 11 12 13 14 15 16 17 18 19 20 21 22 23 24 25 26 27 28 29 30 31 32 33 34 35 36 37 38 39 40 41 42 43 44 45 46 47 48 49 50
000
FTUS43 KMKX 191720
TAFMKE
TAF
KMKE 191720Z 1918/2024 18013G20KT P6SM FEW250
     FM200500 21011KT P6SM SCT130 WS020/21045KT
     FM200700 21012KT P6SM BKN050 WS020/23045KT
     FM201500 23012G24KT P6SM VCTS BKN015 OVC070CB
     FM201800 24012G21KT P6SM SHRA BKN015
     FM201900 25012G21KT P6SM SHRA BKN040
     FM202300 26010G17KT P6SM SHRA SCT090=

USA.gov is the U.S. government's official web portal to all federal, state and local government web resources and services.